Location: *
(46.1833°N, 22.7667°E)
Time: 10:55:40
(UTC+00:00)

H-2A R/B - Pass Details

Date: 17 September 2019
Orbit: 734 x 836 km, 98.3° (Epoch: 13 October)

Event Time Altitude Azimuth Distance (km) Brightness Sun altitude
Exits shadow 19:35:31 14° 227° (SW) 1,961 4.1 -29.2°
Maximum altitude 19:38:16 22° 268° (W) 1,590 4.0 -29.5°
Drops below altitude 10° 19:42:07 10° 319° (NW) 2,280 5.4 -30.0°
Sets 19:44:57 0° 334° (NNW) 3,225 6.2 -30.4°
